This is the latest recevied weather packets stored in our database for station/object OE-11344. If no packets are shown the sender has not sent any weather packets the latest 10 day(s).
| Time | Temp. | Humidity | Pressure | Rain* | Wind** | Luminosity | Snow |
|---|---|---|---|---|---|---|---|
| 1788004512 | 13.33° C | 69% | 853.5 hPa | 0 mm | - | 278 W/m² | - |
| 1788003685 | 13.33° C | 66% | 853.6 hPa | 0 mm | - | 374 W/m² | - |
| 1788003312 | 13.33° C | 71% | 853.6 hPa | 0 mm | - | 320 W/m² | - |
| 1788002712 | 13.33° C | 75% | 853.7 hPa | 0 mm | - | 278 W/m² | - |
| 1788001885 | 12.78° C | 74% | 853.7 hPa | 0 mm | - | 229 W/m² | - |
| 1788001511 | 12.78° C | 76% | 853.7 hPa | 0 mm | - | 266 W/m² | - |
| 1788000912 | 12.78° C | 77% | 853.7 hPa | 0 mm | - | 229 W/m² | - |
| 1788000085 | 13.33° C | 71% | 853.7 hPa | 0 mm | - | 290 W/m² | - |
| 1787999712 | 12.78° C | 76% | 853.8 hPa | 0 mm | - | 302 W/m² | - |
| 1787999112 | 12.78° C | 80% | 853.8 hPa | 0 mm | - | 248 W/m² | - |
| 1787998285 | 12.78° C | 85% | 853.8 hPa | 0 mm | - | 260 W/m² | - |
| 1787997911 | 12.78° C | 80% | 853.8 hPa | 0 mm | - | 272 W/m² | - |
| 1787997312 | 12.78° C | 83% | 853.8 hPa | 0 mm | - | 266 W/m² | - |
| 1787996485 | 12.78° C | 83% | 853.8 hPa | 0 mm | - | 278 W/m² | - |
| 1787996112 | 12.22° C | 80% | 853.9 hPa | 0 mm | - | 211 W/m² | - |
| 1787995512 | 11.67° C | 77% | 854.1 hPa | 0 mm | - | 175 W/m² | - |
| 1787994685 | 11.11° C | 87% | 854.2 hPa | 0 mm | - | 193 W/m² | - |
| 1787994312 | 11.11° C | 89% | 854.2 hPa | 0 mm | - | 181 W/m² | - |
| 1787993712 | 10.56° C | 86% | 854.2 hPa | 0 mm | - | 151 W/m² | - |
| 1787992884 | 10.56° C | 86% | 854.2 hPa | 0 mm | - | 133 W/m² | - |
| 1787992511 | 10.56° C | 77% | 854.1 hPa | 0 mm | - | 121 W/m² | - |
| 1787991911 | 10° C | 90% | 854.2 hPa | 0 mm | - | 109 W/m² | - |
| 1787991085 | 10.56° C | 90% | 854.3 hPa | 0 mm | - | 103 W/m² | - |
| 1787990711 | 10° C | 88% | 854.4 hPa | 0 mm | - | 85 W/m² | - |
| 1787990112 | 10° C | 87% | 854.2 hPa | 0 mm | - | 66 W/m² | - |
* Rain latest hour (hover to see other rain measurements)
** Current wind speed in m/s (hover to see current wind gust speed)